Weather observations for the past three days for
Tacoma / McChord Air Force Base
Imperial (Metric)
Date Time (pdt) Wind (mph) Vis. (mi.) Weather Sky Cond. Temperature (ºF) Relative Humidity Wind Chill (°F) Heat Index (°F) Pressure Precipitation (in)
Air Dwpt 6 hour altimeter (in) sea level (mb) 1 hr 3 hr 6 hr
Max. Min.
14 14:55 NW 12 10.00 Fair CLR 84.4 58.8 42% 84 30.02 1016.8
14 13:55 W 3 10.00 Fair CLR 83.5 57.9 42% 83 30.02 1016.7
14 12:55 W 8 10.00 Fair CLR 80.1 57.4 46% 80 30.03 1017.1
14 11:55 NW 8 10.00 Fair CLR 76.5 54.7 47% 78 30.03 1017.1
14 10:55 N 7 10.00 Fair CLR 76.3 56.8 76.3 55.4 51% 78 30.03 1017.1
14 09:55 NW 3 10.00 Fair CLR 72.5 56.3 57% 30.03 1017.1
14 08:55 Calm 10.00 Fair CLR 69.4 56.3 63% 30.04 1017.4
14 07:55 W 5 10.00 Fair CLR 66.4 55.9 69% 30.03 1017.1
14 06:55 Calm 10.00 Fair CLR 64 55.6 74% 30.02 1016.7
14 05:55 SW 3 10.00 Fair CLR 57.4 52.3 83% 30.01 1016.4
14 04:55 S 3 10.00 Fair CLR 57.6 52.7 74.5 56.1 84% 30 1016.1
14 03:55 Calm 10.00 Fair CLR 59 53.4 82% 29.98 1015.4
14 02:55 Calm 10.00 Fair CLR 60.4 52.2 74% 29.98 1015.4
14 01:55 S 3 10.00 Fair CLR 61.2 50.2 67% 29.97 1015.1
14 00:55 SW 3 10.00 Fair CLR 63.1 50.7 64% 29.97 1015.1
13 23:55 S 3 10.00 Fair CLR 65.3 51.1 60% 29.97 1015.1
13 22:55 Calm 10.00 Fair CLR 74.5 51.1 87.8 74.5 44% 29.97 1015.0
13 21:55 Calm 10.00 Fair CLR 77 48.7 37% 78 29.96 1014.7
13 20:55 N 6 10.00 Fair CLR 79.2 47.5 33% 79 29.95 1014.4
13 19:55 NE 7 10.00 Fair CLR 83.1 50.2 32% 81 29.95 1014.4
13 18:55 NE 8 10.00 Fair CLR 85.8 48.9 28% 83 29.96 1014.7
13 17:55 NE 7 10.00 Fair CLR 86.7 49.6 28% 84 29.96 1014.7
13 16:55 NE 6 10.00 Fair CLR 87.6 51.4 88.9 77.7 29% 85 29.97 1015.1
13 15:55 NE 13 10.00 Fair CLR 88.2 50 27% 85 29.98 1015.4
13 14:55 NE 7 10.00 Fair CLR 88.3 51.1 28% 86 29.99 1015.7
13 13:55 N 12 10.00 Fair CLR 85.5 51.3 31% 83 30 1016.0
13 12:55 NE 14 10.00 Fair CLR 83.7 50.7 32% 82 30.01 1016.4
13 11:55 N 16 10.00 Fair CLR 81.3 51.8 36% 81 30.01 1016.4
13 10:55 NE 8 10.00 Fair CLR 79.3 54.1 80.1 54.7 42% 80 30.02 1016.7
13 09:55 N 5 10.00 Fair CLR 76.5 56.5 50% 78 30.03 1017.1
13 08:55 Calm 10.00 Fair CLR 69.6 56.8 64% 30.03 1017.1
13 07:55 Calm 10.00 Fair CLR 64.4 55.9 74% 30.03 1017.1
13 06:55 S 3 10.00 Fair CLR 59.4 55.8 88% 30.03 1017.1
13 05:55 Calm 10.00 Fair CLR 55.6 53.1 91% 30.02 1016.8
13 04:55 Calm 10.00 Fair CLR 54.5 52.5 72.5 54.1 93% 30.02 1016.8
13 03:55 S 3 10.00 Fair CLR 55.2 52.3 90% 30.01 1016.4
13 02:55 S 3 10.00 Fair CLR 57.7 54.5 89% 30 1016.1
13 01:55 Calm 10.00 Fair CLR 65.5 57.7 76% 30 1016.1
13 00:55 Calm 10.00 Fair CLR 67.6 57.9 71% 30 1016.1
12 23:55 NW 3 10.00 Fair CLR 69.4 57.2 65% 30.01 1016.4
12 22:55 Calm 10.00 Fair CLR 72.5 55.4 85.3 72.5 55% 30 1016.1
12 21:55 Calm 10.00 Fair CLR 74.5 50.5 43% 30 1016.1
12 20:55 NE 7 10.00 Fair CLR 76.5 52.9 44% 78 29.99 1015.8
12 19:55 N 7 10.00 Fair CLR 80.6 55.4 42% 81 29.99 1015.8
12 18:55 NE 7 10.00 Fair CLR 82.9 54 37% 82 29.99 1015.8
12 17:55 NE 8 10.00 Fair CLR 84.4 53.8 35% 83 30 1016.1
12 16:55 Calm 10.00 Fair CLR 83.1 54.1 84 68.9 37% 82 30.01 1016.4
12 15:55 N 6 10.00 Fair CLR 83.3 52.7 35% 82 30.03 1017.1
12 14:55 NE 7 10.00 Fair CLR 81.7 52.2 36% 81 30.04 1017.4
12 13:55 NE 7 10.00 Fair CLR 79.3 52.2 39% 79 30.06 1018.1
12 12:55 N 10 10.00 Fair CLR 78.4 52.2 40% 79 30.07 1018.5
12 11:55 Calm 10.00 Fair CLR 73.6 53.8 50% 30.09 1019.2
12 10:55 W 6 10.00 Fair CLR 69.4 54.5 69.4 54.1 59% 30.1 1019.5
12 09:55 Calm 10.00 Fair CLR 64.8 53.6 67% 30.1 1019.5
12 08:55 W 5 10.00 Fair CLR 61.9 53.4 74% 30.12 1020.2
12 07:55 Calm 10.00 Partly Cloudy SCT009 59.2 53.4 81% 30.12 1020.2
12 06:55 Calm 10.00 Partly Cloudy SCT006 57 52.5 85% 30.12 1020.2
12 05:55 S 3 10.00 Mostly Cloudy BKN007 55.8 52.3 88% 30.11 1019.8
12 04:55 Calm 10.00 Fair CLR 56.5 52.3 67.6 53.4 86% 30.1 1019.5
12 03:55 Calm 10.00 Fair CLR 58.1 52.3 81% 30.09 1019.1
12 02:55 Calm 10.00 Fair CLR 59.2 52.3 78% 30.09 1019.2
12 01:55 Calm 10.00 Fair CLR 60.6 52 73% 30.08 1018.8
12 00:55 W 3 10.00 Fair CLR 62.4 52.5 70% 30.09 1019.2
11 23:55 Calm 10.00 Fair CLR 65.1 53.4 66% 30.08 1018.8
11 22:55 NW 5 10.00 Fair CLR 67.8 54.7 84 67.8 63% 30.08 1018.8
11 21:55 NW 7 10.00 Fair CLR 70.2 55.2 59% 30.07 1018.5
11 20:55 NW 7 10.00 Fair CLR 74.5 56.7 54% 30.06 1018.1
11 19:55 NW 9 10.00 Fair CLR 78.1 57.4 49% 79 30.06 1018.1
11 18:55 NW 6 10.00 Fair CLR 82.6 55 39% 82 30.05 1017.8
11 17:55 NW 6 10.00 Fair CLR 83.3 55 38% 82 30.05 1017.8
11 16:55 NW 5 10.00 Fair CLR 82.9 54.7 83.7 72.1 38% 82 30.07 1018.5
11 15:55 NW 8 10.00 Fair CLR 83.1 54.1 37% 82 30.09 1019.2
Date Time (pdt) Wind (mph) Vis. (mi.) Weather Sky Cond. Air Dwpt Max. Min. Relative Humidity Wind Chill (°F) Heat Index (°F) altimeter (in) sea level (mb) 1 hr 3 hr 6 hr
6 hour
Temperature (ºF) Pressure Precipitation (in)